FRS102 EDXW-EDXW

Flight info

Callsign FRS102
Flight time 0h 7m
Altitude 2500
Route DCT
Aircraft P24/L-DFGLOY/S

Departure

Time 2026-05-06 18:45
Airport Westerland Sylt Airport (EDXW)

Arrival

Time 2026-05-06 18:52
Airport Westerland Sylt Airport (EDXW)
Time Latitude Longitude Altitude Speed Heading
2026-05-06 18:22 54.91286 8.32484 20 ft 0 kts 250°
2026-05-06 18:39 54.91258 8.32496 20 ft 10 kts 152°
2026-05-06 18:39 54.91184 8.32588 20 ft 16 kts 134°
2026-05-06 18:39 54.91094 8.32715 20 ft 15 kts 125°
2026-05-06 18:40 54.90950 8.33105 22 ft 26 kts 145°
2026-05-06 18:40 54.90798 8.33214 27 ft 22 kts 173°
2026-05-06 18:40 54.90661 8.33234 28 ft 16 kts 175°
2026-05-06 18:40 54.90559 8.33249 26 ft 15 kts 174°
2026-05-06 18:41 54.90453 8.33304 25 ft 16 kts 149°
2026-05-06 18:41 54.90364 8.33410 24 ft 16 kts 133°
2026-05-06 18:41 54.90298 8.33555 23 ft 15 kts 119°
2026-05-06 18:41 54.90262 8.33718 23 ft 14 kts 103°
2026-05-06 18:42 54.90248 8.33868 23 ft 12 kts 96°
2026-05-06 18:42 54.90236 8.34048 23 ft 18 kts 94°
2026-05-06 18:42 54.90247 8.34234 24 ft 14 kts 79°
2026-05-06 18:42 54.90276 8.34371 26 ft 11 kts 64°
2026-05-06 18:43 54.90341 8.34525 29 ft 17 kts 46°
2026-05-06 18:43 54.90420 8.34659 31 ft 19 kts 42°
2026-05-06 18:43 54.90546 8.34852 32 ft 19 kts 43°
2026-05-06 18:43 54.90665 8.34843 29 ft 29 kts 325°
2026-05-06 18:44 54.90936 8.34526 57 ft 66 kts 329°
2026-05-06 18:44 54.91295 8.34028 265 ft 66 kts 327°
2026-05-06 18:44 54.91631 8.33484 445 ft 67 kts 324°
2026-05-06 18:44 54.91961 8.32909 614 ft 68 kts 324°
2026-05-06 18:45 54.92374 8.32575 763 ft 70 kts 18°
2026-05-06 18:45 54.92700 8.33256 845 ft 78 kts 54°
2026-05-06 18:45 54.92940 8.34102 889 ft 77 kts 57°
2026-05-06 18:45 54.92990 8.35012 916 ft 85 kts 107°
2026-05-06 18:46 54.92479 8.35671 920 ft 100 kts 148°
2026-05-06 18:46 54.91844 8.36210 949 ft 103 kts 153°
2026-05-06 18:46 54.91184 8.36693 992 ft 103 kts 154°
2026-05-06 18:46 54.90510 8.37115 927 ft 103 kts 156°
2026-05-06 18:47 54.89851 8.37068 809 ft 99 kts 224°
2026-05-06 18:47 54.89670 8.36067 732 ft 80 kts 296°
2026-05-06 18:47 54.90037 8.35516 450 ft 66 kts 342°
2026-05-06 18:47 54.90431 8.35133 175 ft 66 kts 333°
2026-05-06 18:48 54.90780 8.34696 31 ft 52 kts 333°
2026-05-06 18:48 54.91056 8.34346 92 ft 55 kts 328°
2026-05-06 18:48 54.91388 8.33920 273 ft 58 kts 328°
2026-05-06 18:48 54.91690 8.33441 405 ft 61 kts 317°
2026-05-06 18:49 54.91940 8.32827 551 ft 62 kts 317°
2026-05-06 18:49 54.92258 8.32313 614 ft 65 kts 352°
2026-05-06 18:49 54.92657 8.32620 673 ft 70 kts 39°
2026-05-06 18:49 54.92988 8.33267 741 ft 73 kts 42°
2026-05-06 18:50 54.93284 8.33986 801 ft 75 kts 46°
2026-05-06 18:50 54.93369 8.34874 814 ft 84 kts 104°
2026-05-06 18:50 54.92861 8.35517 808 ft 101 kts 149°
2026-05-06 18:50 54.92225 8.36041 861 ft 103 kts 150°
2026-05-06 18:51 54.91571 8.36535 909 ft 100 kts 155°
2026-05-06 18:51 54.90927 8.37001 859 ft 101 kts 153°
2026-05-06 18:51 54.90273 8.37406 805 ft 100 kts 174°
2026-05-06 18:51 54.89709 8.36835 669 ft 98 kts 238°
2026-05-06 18:52 54.89636 8.35841 565 ft 81 kts 323°
2026-05-06 18:52 54.90107 8.35497 259 ft 72 kts 346°
2026-05-06 18:52 54.90511 8.35048 54 ft 65 kts 332°
2026-05-06 18:52 54.90812 8.34680 30 ft 45 kts 327°
2026-05-06 18:53 54.91135 8.34254 108 ft 67 kts 336°
2026-05-06 18:53 54.91515 8.33872 296 ft 62 kts 333°
2026-05-06 18:53 54.91871 8.33428 433 ft 63 kts 329°
2026-05-06 18:53 54.92212 8.32941 574 ft 64 kts 327°
2026-05-06 18:54 54.92605 8.32656 727 ft 64 kts 14°
2026-05-06 18:54 54.92916 8.33254 824 ft 72 kts 51°
2026-05-06 18:54 54.93159 8.34042 861 ft 76 kts 55°
2026-05-06 18:54 54.93276 8.34923 870 ft 80 kts 99°
2026-05-06 18:55 54.92786 8.35464 850 ft 97 kts 159°
2026-05-06 18:55 54.92150 8.35906 931 ft 98 kts 154°
2026-05-06 18:55 54.91504 8.36315 1007 ft 99 kts 154°
2026-05-06 18:55 54.90875 8.36762 1027 ft 99 kts 153°
2026-05-06 18:56 54.90239 8.37185 1082 ft 96 kts 152°
2026-05-06 18:56 54.89618 8.37599 1120 ft 95 kts 152°
2026-05-06 18:56 54.89019 8.37415 1089 ft 101 kts 234°
2026-05-06 18:56 54.88733 8.36293 1057 ft 102 kts 253°
2026-05-06 18:57 54.88490 8.35149 1069 ft 98 kts 255°
2026-05-06 18:57 54.87975 8.34362 1018 ft 105 kts 193°
2026-05-06 18:57 54.87289 8.34633 1021 ft 103 kts 140°
2026-05-06 18:57 54.86881 8.35555 1077 ft 92 kts 106°
2026-05-06 18:58 54.86670 8.36563 1128 ft 85 kts 95°
2026-05-06 18:58 54.86241 8.37302 1083 ft 95 kts 139°
2026-05-06 18:58 54.85686 8.37985 1216 ft 103 kts 140°
2026-05-06 18:58 54.85060 8.38711 1358 ft 115 kts 132°
2026-05-06 18:59 54.84697 8.39928 1499 ft 117 kts 99°
2026-05-06 18:59 54.84639 8.41315 1567 ft 114 kts 84°
2026-05-06 18:59 54.84842 8.42616 1641 ft 108 kts 68°
2026-05-06 18:59 54.85152 8.43832 1658 ft 114 kts 62°
2026-05-06 19:00 54.85545 8.45009 1671 ft 117 kts 57°
2026-05-06 19:00 54.85987 8.46227 1660 ft 119 kts 55°
2026-05-06 19:00 54.86436 8.47385 1757 ft 111 kts 57°
2026-05-06 19:00 54.86705 8.48174 1795 ft 112 kts 58°
2026-05-06 19:01 54.87222 8.49690 1869 ft 111 kts 58°
2026-05-06 19:01 54.87638 8.50879 1890 ft 114 kts 59°
2026-05-06 19:01 54.87972 8.52149 1891 ft 121 kts 73°
2026-05-06 19:01 54.88061 8.53606 1897 ft 120 kts 87°
2026-05-06 19:02 54.88054 8.55078 1873 ft 123 kts 88°
2026-05-06 19:02 54.88039 8.56569 1843 ft 126 kts 86°
2026-05-06 19:02 54.88071 8.58107 1813 ft 129 kts 83°
2026-05-06 19:02 54.88150 8.59636 1817 ft 125 kts 81°
2026-05-06 19:03 54.88237 8.61164 1783 ft 129 kts 81°
2026-05-06 19:03 54.88381 8.62670 1812 ft 124 kts 77°
2026-05-06 19:03 54.88491 8.64165 1795 ft 126 kts 83°
2026-05-06 19:03 54.88745 8.65548 1770 ft 127 kts 45°
2026-05-06 19:04 54.89562 8.65926 1781 ft 128 kts 348°
2026-05-06 19:04 54.90194 8.64848 1739 ft 136 kts 293°
2026-05-06 19:04 54.90036 8.63234 1699 ft 147 kts 235°
2026-05-06 19:04 54.89157 8.62417 1720 ft 145 kts 179°
2026-05-06 19:05 54.88623 8.62585 1738 ft 142 kts 154°